Terminal Aerodrome Forecast
Issued by NWS Salt Lake City, UT

Home | Current Version | Previous Version | Text Only | Print | Product List | Glossary On
Versions: 1 2 3 4 5 6 7 8 9 10 11 12 13 14 15 16 17 18 19 20 21 22 23 24 25 26 27 28 29 30 31 32 33 34 35 36 37 38 39 40 41 42 43 44 45 46 47 48 49 50
000
FTUS45 KSLC 291845 AAC
TAFSLC
TAF AMD
KSLC 291845Z 2919/3024 36010KT P6SM TSRA FEW045CB BKN060 BKN100
     FM291915 36010KT P6SM VCTS FEW045CB BKN060
     FM292000 36010KT P6SM VCSH FEW050 BKN060
     FM300500 17005KT P6SM SCT050 BKN080
     FM301600 35007KT P6SM VCSH SCT050 BKN070=

USA.gov is the U.S. government's official web portal to all federal, state and local government web resources and services.